Location: Bruderhein
(53.8035°N, 112.9265°W)
Time: 21:21:34
(UTC+00:00)

Meteor 1-19 Rocket - Visible Passes

Search period start: 29 November 2023 00:00
Search period end: 09 December 2023 00:00
Orbit: 810 x 924 km, 81.2° (Epoch: 28 November)

Date Brightness Start Highest point End Pass type
(mag) Time Alt. Az. Time Alt. Az. Time Alt. Az.
29 Nov 7.1 12:20:51 10° NE 12:21:24 10° NE 12:21:57 10° NE visible
29 Nov 5.8 14:01:07 10° N 14:06:41 37° ENE 14:12:12 10° SE visible
30 Nov 7.1 12:13:34 10° NNE 12:14:19 10° NE 12:15:03 10° NE visible
30 Nov 5.8 13:54:01 10° N 13:59:36 37° ENE 14:05:07 10° SE visible
01 Dec 7.1 12:06:19 10° NNE 12:07:13 10° NE 12:08:08 10° NE visible
01 Dec 5.8 13:46:54 10° N 13:52:29 38° ENE 13:58:01 10° SE visible
02 Dec 7.1 11:59:06 10° NNE 12:00:08 10° NE 12:01:09 10° NE visible
02 Dec 5.7 13:39:47 10° N 13:45:24 38° ENE 13:50:56 10° SE visible
03 Dec 7.1 11:51:54 10° NNE 11:53:03 10° NE 11:54:10 10° NE visible
03 Dec 5.7 13:32:40 10° N 13:38:18 38° ENE 13:43:50 10° SE visible
04 Dec 7.1 11:44:43 10° NNE 11:45:57 11° NE 11:47:11 10° NE visible
04 Dec 5.7 13:25:34 10° N 13:31:12 39° ENE 13:36:44 10° SE visible
05 Dec 7.1 11:37:32 10° NNE 11:38:52 11° NE 11:40:11 10° NE visible
05 Dec 5.7 13:18:27 10° N 13:24:06 39° ENE 13:29:38 10° SE visible
06 Dec 7.1 11:30:22 10° NNE 11:31:46 11° NE 11:33:10 10° NE visible
06 Dec 5.6 13:11:21 10° N 13:17:00 39° ENE 13:22:32 10° SE visible
07 Dec 7.1 11:23:13 10° NNE 11:24:41 11° NE 11:26:09 10° NE visible
07 Dec 5.6 13:04:14 10° N 13:09:54 40° ENE 13:15:26 10° SE visible
07 Dec 4.7 14:47:36 10° NNW 14:53:20 46° W 14:58:55 10° SSW visible
08 Dec 7.1 11:16:03 10° NNE 11:17:36 11° NE 11:19:08 10° NE visible
08 Dec 5.6 12:57:08 10° N 13:02:47 40° ENE 13:08:20 10° SE visible
08 Dec 4.7 14:40:30 10° NNW 14:46:13 46° W 14:51:48 10° SSW visible
